Vorticity
7 7 7 7 6 5 6 6 6 6 6 6 4 4 6 8 7 20 -3 8 5 7 7 7 13 16 12 7 7 3 20 1 10 7 4 -0 7 15 5 16 18 10 11 13 1
6 6 6 5 5 6 6 6 6 6 5 4 4 4 6 4 9 7 8 5 8 6 7 12 11 7 5 4 5 6 9 10 -3 2 -1 0 1 7 5 6 10 5 17 15 14
6 5 5 6 7 6 7 6 6 5 4 4 3 5 4 3 20 -2 2 9 6 5 11 12 9 5 3 5 -1 -3 10 6 14 8 8 7 8 5 4 5 4 4 7 3 4
6 6 7 7 7 7 7 6 6 5 5 4 4 5 4 3 19 3 6 9 7 5 9 9 8 5 6 3 3 3 11 -0 7 7 7 8 5 4 4 -0 3 5 8 8 1
8 8 7 7 7 7 6 6 5 5 5 4 4 6 3 2 14 -1 8 8 9 5 9 8 8 7 0 8 1 16 -1 4 5 9 7 9 9 6 2 5 10 13 7 9 9
6 6 7 7 6 6 5 5 5 5 5 4 4 6 0 6 17 1 6 8 9 6 7 8 8 6 12 3 14 -1 5 12 9 15 10 3 4 11 14 22 11 28 23 13 11
6 7 7 6 7 6 5 5 5 4 4 4 4 7 11 6 6 1 5 8 7 10 5 8 7 8 6 13 -8 12 14 13 15 10 -0 4 11 37 23 12 2 -7 5 16 14
5 6 6 6 6 6 6 5 5 5 5 4 8 0 6 7 12 1 5 4 11 9 7 7 7 7 10 6 15 18 30 16 -20 10 9 10 -10 -5 16 21 6 9 9 4 2
7 7 6 6 5 5 5 5 6 6 4 4 7 19 14 -6 15 2 4 9 8 6 8 8 8 8 10 14 24 9 -10 -4 17 -8 11 0 -10 16 -6 4 5 11 11 12 15
7 8 8 7 6 5 6 7 7 5 4 7 20 2 -4 8 12 1 5 7 6 7 6 9 7 11 17 17 -14 -16 6 4 11 -7 -6 12 4 5 13 7 9 11 15 12 12
6 7 7 8 7 6 7 8 8 7 5 8 2 9 6 17 3 0 8 5 8 8 12 3 4 21 5 1 -1 11 9 3 15 18 20 7 -7 -2 28 28 25 25 14 10 14
5 6 7 7 8 8 8 5 6 3 10 8 6 7 17 18 -1 6 2 8 9 9 8 7 36 -2 -1 5 15 15 4 5 14 -8 1 12 -3 23 41 14 10 12 13 10 9
4 4 5 5 6 6 6 5 5 7 7 17 7 13 25 1 -5 13 5 7 8 8 5 10 17 2 -3 9 15 8 9 10 7 10 0 42 8 23 -6 25 -3 -1 8 7 9
5 4 5 4 5 6 6 6 6 6 25 15 24 20 8 -0 18 -6 8 8 5 1 8 15 -6 14 4 14 11 9 28 -1 8 13 6 -37 -12 22 19 -11 12 -0 3 -1 11
8 7 5 5 5 5 5 6 6 10 21 15 16 9 -2 -1 -4 5 10 7 6 7 6 -13 6 2 11 12 10 -10 15 3 9 13 31 32 13 -12 -3 21 9 8 -3 -0 -17
7 8 7 8 7 7 8 8 8 32 13 4 0 -0 14 -9 5 -1 14 8 10 9 15 12 11 24 5 -8 25 9 12 -2 49 33 19 26 4 -4 -9 1 -9 10 1 -6 1
9 11 14 11 6 7 8 10 21 7 14 20 12 12 1 -3 4 18 4 3 14 17 1 -4 27 10 18 8 8 4 1 19 18 0 -14 -26 12 2 39 9 3 15 -9 -12 1
0 5 8 10 13 8 8 13 10 6 13 -12 -0 -5 -2 -2 16 7 -1 15 16 21 7 15 18 12 -31 22 -3 3 22 -11 17 -3 -27 12 21 -28 2 36 8 -2 -16 71 62
5 -15 -2 20 11 12 10 20 -12 22 26 9 5 8 18 36 -1 12 16 25 4 2 7 11 11 -7 12 8 11 -3 5 -2 12 38 45 7 -4 -16 -19 9 3 11 19 33 21
8 3 14 7 -2 11 13 -12 3 20 6 -7 -4 -6 3 14 7 17 10 -1 15 3 12 6 16 31 -9 22 33 10 -4 18 7 9 20 -33 31 -33 25 -8 13 9 32 20 36
16 7 5 6 6 -1 3 2 12 7 6 -7 11 -2 -1 -2 3 3 -6 -10 23 12 7 7 21 -34 6 -0 -7 12 -0 1 13 6 2 12 -27 -9 29 -11 9 -24 29 29 32
16 14 11 9 13 10 2 3 -1 4 15 11 8 -8 -29 -7 16 9 -6 6 -10 7 11 12 7 6 -4 27 14 17 15 5 17 -15 -22 0 -20 17 -49 -4 -18 66 25 26 33
21 11 13 -3 17 19 4 7 2 9 5 19 12 17 10 6 4 34 16 -1 8 11 3 2 5 18 8 9 13 1 -12 -5 3 25 -6 12 -27 -29 0 11 14 22 39 21 20
12 14 39 21 -15 15 9 21 5 6 10 9 -5 3 6 12 7 -19 -7 1 -12 -9 2 17 18 -2 -34 -31 -13 4 10 15 17 12 4 -3 -6 2 25 -6 21 52 25 10 18
7 6 5 -13 64 -14 -7 13 10 13 18 24 18 24 8 8 6 16 11 22 13 29 11 21 4 11 6 5 17 19 13 18 16 12 9 -9 6 22 -4 16 59 23 26 7 20
5 8 6 16 24 -5 19 11 -6 10 -2 -4 12 -2 8 15 8 -19 0 10 12 9 16 13 -1 -7 6 36 17 -8 32 24 15 19 17 12 8 -2 12 57 19 22 27 13 22
7 7 5 13 -4 27 15 18 -3 31 22 10 8 -3 6 4 10 8 6 -2 -17 -9 14 21 17 2 18 -3 16 53 14 6 6 28 7 5 5 7 17 28 13 15 24 15 19
Height
3156 3155 3156 3154 3154 3154 3153 3152 3152 3151 3150 3149 3147 3145 3144 3142 3139 3137 3135 3134 3131 3129 3126 3123 3121 3119 3118 3118 3117 3117 3118 3118 3117 3114 3113 3109 3107 3107 3106 3104 3105 3105 3102 3103 3103
3156 3155 3155 3154 3154 3153 3152 3152 3151 3150 3148 3147 3147 3145 3143 3140 3137 3135 3134 3132 3129 3127 3124 3121 3118 3117 3116 3116 3115 3115 3115 3115 3111 3109 3106 3105 3102 3102 3100 3099 3099 3098 3097 3095 3094
3157 3155 3155 3154 3153 3152 3152 3151 3150 3149 3147 3147 3146 3144 3141 3139 3137 3134 3132 3130 3127 3125 3122 3120 3118 3116 3115 3115 3114 3113 3112 3109 3108 3105 3102 3100 3098 3096 3094 3094 3093 3091 3091 3091 3088
3156 3155 3154 3154 3153 3152 3151 3150 3149 3148 3147 3146 3144 3142 3140 3139 3139 3134 3131 3129 3126 3124 3121 3118 3116 3115 3114 3113 3111 3110 3107 3105 3104 3100 3097 3094 3092 3089 3087 3086 3085 3086 3084 3082 3081
3155 3154 3153 3153 3152 3151 3150 3149 3148 3148 3146 3145 3143 3141 3139 3137 3135 3133 3130 3128 3126 3123 3120 3117 3115 3113 3112 3110 3107 3104 3103 3101 3098 3096 3091 3087 3086 3082 3079 3078 3078 3076 3074 3073 3074
3152 3152 3151 3152 3151 3150 3149 3148 3147 3147 3145 3144 3142 3140 3138 3136 3133 3132 3129 3127 3124 3121 3118 3116 3114 3112 3109 3107 3104 3101 3098 3096 3093 3091 3086 3080 3077 3077 3074 3069 3066 3066 3065 3064 3064
3151 3150 3150 3150 3150 3149 3148 3148 3146 3145 3144 3142 3140 3138 3136 3135 3131 3129 3127 3124 3122 3119 3116 3114 3112 3110 3107 3104 3100 3097 3092 3091 3088 3085 3081 3075 3069 3068 3064 3061 3061 3060 3058 3056 3055
3149 3148 3148 3148 3148 3148 3147 3146 3145 3143 3142 3140 3138 3136 3134 3132 3130 3127 3125 3123 3120 3117 3114 3112 3109 3107 3105 3102 3097 3094 3090 3088 3088 3082 3080 3073 3056 3065 3060 3059 3055 3053 3050 3048 3046
3148 3147 3146 3146 3145 3145 3144 3143 3142 3141 3139 3138 3136 3134 3132 3130 3128 3126 3123 3120 3117 3114 3112 3109 3106 3104 3101 3097 3095 3093 3091 3088 3084 3079 3076 3071 3052 3056 3054 3051 3047 3044 3041 3039 3036
3145 3145 3144 3143 3143 3142 3142 3141 3139 3138 3137 3135 3133 3134 3130 3129 3126 3124 3121 3118 3115 3112 3110 3107 3104 3101 3098 3097 3097 3093 3088 3084 3080 3078 3071 3063 3050 3045 3048 3045 3037 3035 3034 3032 3028
3142 3142 3141 3141 3140 3140 3140 3139 3140 3138 3135 3133 3131 3129 3126 3125 3123 3122 3119 3117 3114 3111 3109 3105 3103 3100 3099 3096 3093 3089 3084 3077 3073 3070 3064 3057 3046 3038 3036 3036 3030 3028 3027 3026 3022
3139 3139 3139 3138 3138 3137 3136 3136 3135 3134 3130 3129 3127 3124 3122 3121 3121 3119 3117 3115 3111 3109 3106 3103 3099 3099 3096 3092 3087 3084 3079 3072 3068 3067 3063 3052 3036 3034 3030 3029 3027 3023 3021 3018 3015
3136 3136 3135 3135 3135 3134 3133 3133 3132 3130 3127 3124 3121 3119 3119 3120 3118 3116 3115 3112 3109 3106 3104 3100 3099 3096 3092 3089 3083 3080 3076 3071 3067 3059 3056 3047 3030 3029 3028 3024 3023 3019 3016 3014 3010
3130 3131 3130 3131 3133 3131 3131 3131 3129 3127 3123 3120 3117 3116 3117 3116 3116 3114 3112 3112 3107 3104 3101 3097 3094 3093 3089 3085 3082 3073 3073 3069 3063 3058 3050 3050 3033 3022 3021 3020 3019 3016 3013 3009 3002
3125 3126 3125 3126 3127 3128 3128 3127 3127 3127 3123 3117 3114 3114 3114 3116 3114 3112 3110 3106 3105 3102 3100 3098 3091 3088 3085 3082 3078 3072 3068 3064 3057 3052 3048 3041 3039 3016 3020 3015 3013 3011 3006 3000 2995
3117 3119 3120 3121 3122 3124 3124 3124 3126 3127 3116 3112 3110 3110 3112 3111 3110 3107 3106 3105 3102 3098 3095 3092 3089 3085 3082 3079 3076 3069 3063 3059 3050 3047 3045 3033 3033 3011 3016 3013 3009 3004 2998 2990 2983
3110 3112 3114 3115 3118 3119 3120 3122 3124 3118 3113 3108 3107 3108 3108 3108 3106 3104 3103 3101 3101 3096 3092 3089 3085 3082 3079 3076 3075 3070 3067 3056 3045 3040 3031 3029 3025 3017 3010 3008 3004 2995 2987 2978 2969
3104 3107 3106 3109 3111 3114 3115 3119 3115 3107 3107 3105 3107 3106 3105 3105 3103 3102 3100 3098 3095 3095 3091 3088 3082 3081 3077 3075 3072 3068 3068 3065 3050 3039 3024 3028 3017 3011 3008 3003 2996 2991 2982 2965 2955
3096 3097 3100 3105 3106 3108 3111 3108 3103 3105 3104 3103 3104 3104 3102 3101 3102 3099 3096 3096 3094 3093 3093 3089 3081 3078 3076 3071 3069 3066 3064 3062 3053 3040 3028 3018 3012 3008 3002 2997 2991 2982 2970 2959 2953
3087 3089 3094 3098 3101 3102 3102 3094 3098 3098 3102 3103 3102 3101 3102 3100 3100 3097 3094 3092 3091 3090 3088 3088 3079 3074 3071 3067 3065 3064 3063 3059 3054 3040 3025 3013 3008 3000 2996 2988 2983 2974 2965 2956 2950
3080 3082 3081 3090 3094 3094 3086 3087 3092 3092 3097 3100 3098 3099 3097 3099 3096 3096 3092 3090 3088 3087 3085 3084 3082 3074 3071 3066 3064 3063 3059 3055 3051 3047 3034 3014 3002 3001 2994 2987 2976 2968 2960 2952 2947
3071 3073 3075 3080 3087 3080 3077 3083 3086 3085 3090 3093 3093 3092 3094 3096 3092 3092 3089 3087 3085 3084 3082 3081 3077 3070 3065 3060 3058 3056 3055 3055 3052 3042 3038 3031 2999 3000 2995 2984 2974 2961 2955 2952 2948
3063 3065 3067 3073 3072 3071 3074 3078 3078 3078 3083 3085 3086 3087 3088 3089 3091 3086 3083 3083 3082 3081 3080 3078 3074 3069 3059 3058 3054 3052 3052 3051 3048 3042 3031 3027 3000 2995 2991 2979 2968 2958 2954 2952 2949
3060 3059 3059 3061 3063 3065 3069 3070 3071 3071 3075 3078 3078 3082 3082 3082 3084 3081 3079 3078 3077 3077 3075 3074 3069 3068 3062 3055 3054 3046 3043 3044 3042 3036 3024 3015 3001 2993 2986 2973 2963 2957 2953 2953 2952
3053 3051 3052 3052 3052 3058 3062 3062 3065 3065 3069 3071 3070 3073 3077 3077 3078 3076 3076 3075 3071 3071 3070 3070 3062 3061 3055 3051 3046 3040 3037 3034 3034 3027 3024 3006 3004 2995 2984 2969 2962 2955 2951 2955 2956
3049 3048 3050 3049 3051 3054 3053 3051 3055 3062 3064 3064 3065 3071 3070 3067 3073 3075 3073 3072 3069 3065 3065 3063 3058 3055 3046 3044 3040 3034 3031 3029 3025 3021 3017 3011 3002 2996 2983 2971 2963 2958 2952 2958 2959
3043 3043 3043 3042 3045 3046 3044 3045 3047 3053 3054 3055 3060 3061 3060 3064 3068 3068 3069 3066 3065 3061 3060 3059 3056 3054 3043 3040 3035 3029 3027 3025 3021 3017 3014 3009 3001 2991 2983 2974 2967 2963 2960 2961 2961